Regional Weather Roundup
Issued by NWS

Home | Current Version | Previous Version | Text Only | Print | Product List | Glossary Off
Versions: 1 2 3 4 5 6 7 8 9 10 11 12 13 14 15 16 17 18 19 20 21 22 23 24 25 26 27 28 29 30 31 32 33 34 35 36 37 38 39 40 41 42 43 44 45 46 47 48 49 50

000
ASUS43 KOAX 060302
RWRNE

WEATHER ROUNDUP FOR NEBRASKA
NATIONAL WEATHER SERVICE OMAHA NE
1000 PM CDT SUN JUL 05 2015

NOTES: SATELLITE DATA IS BEING USED TO AUGMENT CLOUD COVER ABOVE
       12000 FEET.
       "FAIR" INDICATES FEW OR NO CLOUDS BELOW 12,000 FEET WITH NO
       SIGNIFICANT WEATHER AND/OR OBSTRUCTIONS TO VISIBILITY.

  * THESE STATIONS DO NOT REPORT WEATHER SUCH AS RAIN...SNOW OR FOG.

NEZ001>004-019>022-054>056-060400-
NEBRASKA PANHANDLE

CITY           SKY/WX    TMP DP  RH WIND       PRES   REMARKS
SCOTTSBLUFF    CLOUDY    67 N/A N/A W13       29.96R
ALLIANCE       LGT RAIN  64  62  93 N14       29.95R
CHADRON        LGT RAIN  64  61  90 NE17      29.99R
KIMBALL          N/A    N/A N/A N/A MISG        N/A
SIDNEY         LGT RAIN  66  63  90 N10       29.99R
$$

NEZ057>060-069>072-079>082-060400-
SOUTHWEST NEBRASKA

CITY           SKY/WX    TMP DP  RH WIND       PRES   REMARKS
NORTH PLATTE   CLOUDY    81  61  50 W10       29.79R
IMPERIAL       CLOUDY    75  61  61 NW12      29.82R
LEXINGTON      CLOUDY    82  58  44 SW8       29.74R
MCCOOK         TSTM      76  66  71 NW16      29.82R
$$

NEZ005>010-023>029-035>040-094-060400-
NORTH CENTRAL NEBRASKA

CITY           SKY/WX    TMP DP  RH WIND       PRES   REMARKS
VALENTINE      CLOUDY    69  66  90 N22G39    29.82S
AINSWORTH      TSTM      68  66  93 NW54G68   29.74F VSB 1/2
BROKEN BOW     CLOUDY    85  63  47 SW9       29.72R
ORD            CLOUDY    86  69  56 SE10      29.70R HX  90
$$

NEZ041-046>049-061>064-073>077-083>087-060400-
SOUTH CENTRAL NEBRASKA

CITY           SKY/WX    TMP DP  RH WIND       PRES   REMARKS
GRAND ISLAND   CLOUDY    85  65  51 S14G22    29.75R
AURORA         MOCLDY    83  67  57 S12       29.76R
HASTINGS       MOCLDY    86  62  44 S13G20    29.75R
KEARNEY *      CLOUDY    84  61  45 S13       29.76R
$$

NEZ011>018-030>034-042>045-060400-
NORTHEAST NEBRASKA

CITY           SKY/WX    TMP DP  RH WIND       PRES   REMARKS
NORFOLK        CLOUDY    82  75  79 SE15      29.75R
BLAIR          CLOUDY    83  70  64 SE13G18   29.80R
COLUMBUS *     CLOUDY    82  72  69 SE8       29.75R
FREMONT        MOCLDY    83  70  64 SE13      29.78R
TEKAMAH        MOCLDY    82  75  79 SE12      29.76S
$$

NEZ050>053-065>068-078-088>093-060400-
SOUTHEAST NEBRASKA

CITY           SKY/WX    TMP DP  RH WIND       PRES   REMARKS
LINCOLN        PTCLDY    85  70  60 SE16G23   29.79R
OMAHA EPPLEY   MOCLDY    84  75  74 SE16      29.79R THUNDER HX  92
FALLS CITY     CLEAR     82  75  79 SE13      29.81F
PLATTSMOUTH    MOCLDY    82  72  72 SE10      29.81F
$$

NEZ044-045-051>053-067-060400-
OMAHA AREA

CITY           SKY/WX    TMP DP  RH WIND       PRES   REMARKS
OMAHA EPPLEY   MOCLDY    84  75  74 SE16      29.79R THUNDER HX  92
BLAIR          CLOUDY    83  70  64 SE13G18   29.80R
FREMONT        MOCLDY    83  70  64 SE13      29.78R
MILLARD        LGT RAIN  81  73  77 SE12G17   29.78R
OFFUTT AFB     MOCLDY    82  75  77 SE15      29.78F
PLATTSMOUTH    MOCLDY    82  72  72 SE10      29.81F
$$



USA.gov is the U.S. government's official web portal to all federal, state and local government web resources and services.